"Pseudo-MPEC" for C2YQEQ2

Created 2020 Aug 2 23:07:07 UT using Find_Orb

Click here for an explanation of pseudo-MPECs

 
 Astrometry: 
     C2YQEQ2  C2020 08 01.29744 21 49 26.76 +27 32 48.3    ~817q 19.9 GVNEOCPG96
     C2YQEQ2  C2020 08 01.30270 21 49 27.54 +27 31 28.2    ~817q 19.6 GVNEOCPG96
     C2YQEQ2  C2020 08 01.30796 21 49 28.35 +27 30 08.8    ~817q 19.3 GVNEOCPG96
     C2YQEQ2  C2020 08 01.31320 21 49 29.14 +27 28 49.3    ~817q 19.1 GVNEOCPG96
     C2YQEQ2  C2020 08 01.39427 21 49 41.04 +27 08 19.4    ~819q 18.8 GVNEOCPI52
     C2YQEQ2  C2020 08 01.39578 21 49 41.28 +27 07 56.2    ~819q 18.9 GVNEOCPI52
     C2YQEQ2  C2020 08 01.39729 21 49 41.55 +27 07 33.3    ~819q 18.3 GVNEOCPI52
     C2YQEQ2  C2020 08 01.39880 21 49 41.72 +27 07 10.2    ~819q 19.0 GVNEOCPI52
     C2YQEQ2  C2020 08 01D(`q=8hAstrometry,*6Hc=u)qnI3]tQF2%nxhnNi80Oc(AQ4%h6N88
     C2YQEQ2  C2020 08 01i_eL0YOCq#Nqi-fBOZpMZG6bihwn037IScY2l]o*U_8A'g!Q`N1-N88
     C2YQEQ2  C2020 08 01?tv-KEq8\@ky$lUa9U+76M9g3AR@`qGQjR^[R79yFUo`KJkc`'QwN88
     C2YQEQ2  C2020 08 013L^:C+k9J[kbqxTredacted;0weF`7p,0JVkVS$(kr%wd!y/=p-qN88
     C2YQEQ2  C2020 08 01'^Ll*f]Tr7wmcS!B5l::C$2x$uN]gUAmZ94,Q-)xp6ylKF-?Ce+BN88
     C2YQEQ2 KC2020 08 01C'8rdYM_')?aC.Gt;+reALXGL?@o*LkN-)Fq=M0DW*_T8,(-7TL3104
     C2YQEQ2 hC2020 08 01*ZRIT.m\gQ(^nUI8fSQtE7ROW$7cPDf*Fte9VRj8k^H:PhG[cls?L01
     C2YQEQ2 KC2020 08 01xv4?nX`RXZ=qkJ];T+/_NV@7H9V;-VYuv'S\clickZepQ\;!Ry-*104
     C2YQEQ2 hC2020 08 01Kl2[2I]LZ]Ag:!b6\oLZBnp8II7fVuk.Mh10nkH6XbktRMC$D#lNL01
     C2YQEQ2 hC2020 08 018;w)[-%Mc3TQDFjf\NMwZT@^xx9DL+`I5u0nHs[VJ%uJIa,Lj3IJL01
     C2YQEQ2 hC2020 08 01hCc@AVema%pPZD#-%Y2_T\.pC4:V7dx[M?]^JEctOc/NfSFNlTeUL01
     C2YQEQ2 KC2020 08 01$.id')=0\rn@vm]KBFZpgv$g%JhereADYR#p^!3fILZiI't#MTNn104
     C2YQEQ2 hC2020 08 01*R[cVV-6V9mu0QvC+mWP6W=[D./8m;sVKO;,W.[g_1ejN2$H(6?]L01
     C2YQEQ2 KC2020 08 01.88712621 51 32.88 +25 08 01.0    ~81MM 19.5 GVNEOCPJ95
     C2YQEQ2 KC2020 08 01.89292021 51 33.85 +25 06 41.8    ~81MM 19.8 GVNEOCPJ95
     C2YQEQ2 KC2020 08 01.89870521 51 34.82 +25 05 23.0    ~81MM 19.8 GVNEOCPJ95
     C2YQEQ2 KC2020 08 01q=kZU8O(oT2gprD$Sf+bl=dK?Ga_*2VOFfBOn7)XSRV2_B*$MlJDJ69
     C2YQEQ2 KC2020 08 011ud26#pYEEgQnX5Njh'GTfC^DK+oopDY([\x7pw:o?kcQZ8B#sCWJ69
     C2YQEQ2 KC2020 08 01.90560721 51 35.90 +25 03 48.7    ~81MM 19.7 GVNEOCPJ95
     C2YQEQ2 KC2020 08 01_f*7!S-qw@y2WQJMNdBG/`yjRumK$dfor*tHBu!)FyIEeP5S%SPLJ69
     C2YQEQ2 KC2020 08 01cj%-BTmXWI-E('NOZwNFX%5e^C;explanationd`+jmMj!tcYR2@J69
     C2YQEQ2 KC2020 08 0121#m_RN6ZNn9=Zw`ObF5,mbvn7_(iKH!\KnuWv2l$Z+B:](Dy)Y+J69

Station data:
(104) San Marcello Pistoiese  (N44.063037 E10.804200)  Italy. 0.40-m f/5
   reflector.
(G96) Mt. Lemmon Survey  (N32.442754 W110.788720)  US/Arizona.  Observers T.
   A. Pruyne, B. M. Africano, E. J. Christensen, G. A. Farneth, D. C. Fuls,
   A. R. Gibbs, A. D. Grauer, H. Gröller, J. A. Johnson, R. A. Kowalski, S.
   M. Larson, G. J. Leonard, D. Rankin, R. L. Seaman, F. C. Shelly. 1.5-m
   reflector + 10K CCD.
(I52) Steward Observatory, Mt. Lemmon Station  (N32.442547 W110.788920)
   US/Arizona.  Observers T. A. Pruyne, B. M. Africano, E. J. Christensen, G.
   A. Farneth, D. C. Fuls, A. R. Gibbs, A. D. Grauer, H. Gröller, J. A.
   Johnson, R. A. Kowalski, S. M. Larson, G. J. Leonard, D. Rankin, R. L.
   Seaman, F. C. Shelly. 1.0-m reflector + CCD.
(J69) North Observatory, Clanfield  (N50.938989 W1.019660)  UK.
(J95) Great Shefford  (N51.474969 W1.447003)  UK.  Observer P. Birtwhistle.
   0.40-m f/6.0 Schmidt-Cassegrain + CCD.
(L01) Višnjan Observatory, Tičan  (N45.290900 E13.749300)  Croatia.
   Observers K. Korlević, E. Pettarin. Measurer E. Pettarin. 1.0-m f/2.9
   reflector + CCD.
(N88) Xingming Observatory #3, Nanshan  (N43.471787 E87.173220)  China.

Orbital elements:  C2YQEQ2
   Perihelion 2020 Jun 19.270070 +/- 0.0666 TT =  6:28:54 (JD 2459019.770070)
Epoch 2020 Aug  2.0 TT = JDT 2459063.5   Earth MOID: 0.0171   Ma: 0.0445
M  20.92139247 +/- 0.13             (J2000 ecliptic)          AutoNEOCP
n   0.47842273 +/- 0.0024           Peri.   73.76793 +/- 1.1
a   1.61905465 +/- 0.00543          Node   184.12162 +/- 1.1
e   0.4292688 +/- 0.00209           Incl.    1.93076 +/- 0.032
P   2.06/752.46d           H 24.4   G  0.15   U  8.7  
q 0.92404484 +/- 0.000291    Q 2.31406446 +/- 0.0111
From 30 observations 2020 Aug. 1 (14.7 hr); mean residual 0".59
Residuals in arcseconds: 
200801 G96  .28+  .05+    200801 N88  .41+  .84-    200801 L01  .22+  .45-    
200801 G96  .06-  .33-    200801 N88  .17+  .04-    200801 J95  .35-  .14+    
200801 G96  .08+  .00     200801 N88  .21-  .16+    200801 J95  .23-  .07-    
200801 G96  .05+  .07-    200801 104  .18-  .05+    200801 J95  .06+  .04-    
200801 I52  .44-  .34+    200801 L01  .03+  .07-    200801 J69  .02-  .03+    
200801 I52  .21-  .08+    200801 104  .75+  .17-    200801 J69  .88-  .76+    
200801 I52  .43+  .12+    200801 L01  .23+  .03-    200801 J95  .47-  .33-    
200801 I52  .27-  .04-    200801 L01  .67+  .58-    200801 J69  1.9+  .90+    
200801 N88  .64-  .17-    200801 L01  .85+  .38-    200801 J69  .13+  .73+    
200801 N88  .59+  .58+    200801 104  .16+  .38+    200801 J69  2.7+  1.1+    

Ephemerides (geocentric):
Date (UTC) HH   RA              Dec         delta   r     elong  mag " sig PA
---- -- -- --  -------------   -----------  ------ ------ -----  --- ---- ---
2020 08 02 23  21 54 29.769   +21 21 48.25  .05318 1.0550 138.3 19.7 3.52 163
2020 08 03 00  21 54 36.059   +21 13 41.86  .05337 1.0552 138.4 19.7 3.70 163
2020 08 03 01  21 54 42.290   +21 05 38.63  .05355 1.0554 138.6 19.7 3.88 164
2020 08 03 02  21 54 48.466   +20 57 38.53  .05373 1.0557 138.7 19.7 4.07 164
2020 08 03 03  21 54 54.585   +20 49 41.53  .05391 1.0559 138.9 19.7 4.26 164
2020 08 03 04  21 55 00.648   +20 41 47.61  .05409 1.0561 139.0 19.8 4.46 164
2020 08 03 05  21 55 06.657   +20 33 56.74  .05428 1.0563 139.1 19.8 4.65 164
2020 08 03 06  21 55 12.611   +20 26 08.89  .05446 1.0565 139.3 19.8 4.85 164
2020 08 03 07  21 55 18.512   +20 18 24.05  .05464 1.0567 139.4 19.8 5.05 165
2020 08 03 08  21 55 24.361   +20 10 42.18  .05483 1.0570 139.5 19.8 5.26 165
2020 08 03 09  21 55 30.157   +20 03 03.26  .05501 1.0572 139.7 19.8 5.47 165
2020 08 03 10  21 55 35.901   +19 55 27.27  .05519 1.0574 139.8 19.8 5.68 165
2020 08 03 11  21 55 41.595   +19 47 54.18  .05538 1.0576 139.9 19.8 5.89 165
2020 08 03 12  21 55 47.238   +19 40 23.96  .05556 1.0578 140.1 19.8 6.10 165
2020 08 03 13  21 55 52.831   +19 32 56.61  .05575 1.0580 140.2 19.8 6.32 165
2020 08 03 14  21 55 58.375   +19 25 32.08  .05593 1.0583 140.3 19.8 6.54 165
2020 08 03 15  21 56 03.870   +19 18 10.36  .05612 1.0585 140.5 19.8 6.76 165
2020 08 03 16  21 56 09.318   +19 10 51.42  .05631 1.0587 140.6 19.8 6.99 165
2020 08 03 17  21 56 14.717   +19 03 35.24  .05649 1.0589 140.7 19.8 7.21 166
2020 08 03 18  21 56 20.070   +18 56 21.80  .05668 1.0591 140.8 19.8 7.44 166
2020 08 03 19  21 56 25.377   +18 49 11.07  .05686 1.0594 141.0 19.8 7.67 166
2020 08 03 20  21 56 30.637   +18 42 03.03  .05705 1.0596 141.1 19.8 7.91 166
2020 08 03 21  21 56 35.852   +18 34 57.67  .05724 1.0598 141.2 19.8 8.14 166
2020 08 03 22  21 56 41.022   +18 27 54.95  .05743 1.0600 141.3 19.8 8.38 166
2020 08 03 23  21 56 46.148   +18 20 54.86  .05761 1.0602 141.5 19.8 8.61 166
2020 08 04 00  21 56 51.230   +18 13 57.37  .05780 1.0605 141.6 19.8 8.85 166
2020 08 04 01  21 56 56.268   +18 07 02.46  .05799 1.0607 141.7 19.8 9.09 166
2020 08 04 02  21 57 01.264   +18 00 10.11  .05818 1.0609 141.8 19.8 9.34 166
2020 08 04 03  21 57 06.217   +17 53 20.30  .05837 1.0611 142.0 19.8 9.58 166
2020 08 04 04  21 57 11.128   +17 46 33.01  .05856 1.0613 142.1 19.8 9.82 166
2020 08 04 05  21 57 15.997   +17 39 48.22  .05875 1.0616 142.2 19.9 10.1 166
2020 08 04 06  21 57 20.826   +17 33 05.91  .05894 1.0618 142.3 19.9 10.3 166
2020 08 04 07  21 57 25.614   +17 26 26.05  .05913 1.0620 142.4 19.9 10.6 166
2020 08 04 08  21 57 30.361   +17 19 48.62  .05932 1.0622 142.6 19.9 10.8 167
2020 08 04 09  21 57 35.069   +17 13 13.62  .05951 1.0624 142.7 19.9 11.1 167
2020 08 04 10  21 57 39.738   +17 06 41.01  .05970 1.0627 142.8 19.9 11.3 167
2020 08 04 11  21 57 44.368   +17 00 10.77  .05989 1.0629 142.9 19.9 11.6 167
2020 08 04 12  21 57 48.959   +16 53 42.89  .06008 1.0631 143.0 19.9 11.8 167
2020 08 04 13  21 57 53.512   +16 47 17.35  .06027 1.0633 143.2 19.9 12.1 167
2020 08 04 14  21 57 58.027   +16 40 54.13  .06046 1.0635 143.3 19.9 12.3 167
2020 08 04 15  21 58 02.506   +16 34 33.21  .06065 1.0638 143.4 19.9 12.6 167
2020 08 04 16  21 58 06.947   +16 28 14.57  .06085 1.0640 143.5 19.9 12.9 167
2020 08 04 17  21 58 11.352   +16 21 58.18  .06104 1.0642 143.6 19.9 13.1 167
2020 08 04 18  21 58 15.721   +16 15 44.05  .06123 1.0644 143.7 19.9 13.4 167
2020 08 04 19  21 58 20.053   +16 09 32.13  .06142 1.0647 143.8 19.9 13.7 167
2020 08 04 20  21 58 24.351   +16 03 22.43  .06162 1.0649 144.0 19.9 13.9 167
2020 08 04 21  21 58 28.614   +15 57 14.91  .06181 1.0651 144.1 19.9 14.2 167
2020 08 04 22  21 58 32.841   +15 51 09.56  .06200 1.0653 144.2 19.9 14.4 167